Location: Les Jeannots
(43.2262°N, 5.5774°E)
Time: 08:46:05
(UTC+00:00)

Cosmos 1408 Rocket - Pass Details

Date: 05 July 2020
Orbit: 602 x 630 km, 82.6° (Epoch: 04 August)

Event Time Altitude Azimuth Distance (km) Brightness Sun altitude
Exits shadow 23:35:54 77° 274° (W) 637 3.5 -24.1°
Maximum altitude 23:35:56 77° 278° (W) 637 3.5 -24.1°
Drops below altitude 10° 23:40:21 10° 5° (N) 1,995 7.2 -24.1°
Sets 23:42:36 0° 7° (N) 2,910 8.4 -24.1°
